sat.trackr.live / text

‹ back to catalog

PIAST-S1

NORAD 66749 · 2025-276CM

PAYLOAD ACTIVE UNKNOWN

§ Identity

Operator
Country
POL
Launch date
2025-11-28
Launch site
AFWTR
Launch vehicle
Mass (kg)
RCS (m²)

External: N2YO · Heavens-Above · Gunter

§ Orbital elements

Epoch: 2026-05-25T02:34:08.643072Z

Period
94.74 min
Inclination
97.4195°
Eccentricity
0.0003715
Mean motion
15.19982862 rev/d
Perigee alt
503.3 km
Apogee alt
508.4 km
Semi-major
6,884.0 km
B*
2.3224e-4
RAAN
219.1367°
Arg perigee
69.2776°
Mean anomaly
290.8857°
Rev number
2,692

§ Raw data

PIAST-S11 66749U 25276CM  26145.10704448  .00004932  00000+0  23224-3 0  99932 66749  97.4195 219.1367 0003715  69.2776 290.8857 15.19982862 26920

JSON: /api/v1/satellites/66749 · /tle

For live sub-satellite position, see the globe view (requires WebGL).

§ Visibility from observer

Set your observer location to see the next 7 days of passes ≥ 10°. The values pass through the URL so the page stays shareable.

No JS? Fill the form by hand. The geolocation button needs JavaScript.